TimeCET,TemperatureF,Dew PointF,Humidity,Sea Level PressureIn,VisibilityMPH,Wind Direction,Wind SpeedMPH,Gust SpeedMPH,PrecipitationIn,Events,Conditions,WindDirDegrees,DateUTC
12:45 AM,46.4,44.6,93,30.27,1.2,Calm,Calm,-,N/A,,Overcast,0,2012-11-23 23:45:00
1:00 AM,46,45,96,30.28,1,Calm,Calm,,,Rain,Light Drizzle,,2012-11-24 00:00:00
1:45 AM,46.4,44.6,93,30.27,1.2,WSW,1.2,-,N/A,,Overcast,240,2012-11-24 00:45:00
2:45 AM,46.4,44.6,93,30.27,1.2,NW,2.3,-,N/A,,Overcast,310,2012-11-24 01:45:00
3:45 AM,44.6,44.6,100,30.24,1.2,Calm,Calm,-,N/A,,Overcast,0,2012-11-24 02:45:00
4:45 AM,44.6,42.8,93,30.27,1.2,Calm,Calm,-,N/A,,Overcast,0,2012-11-24 03:45:00
5:12 AM,44.6,44.6,100,30.27,0.3,NE,1.2,-,N/A,Fog,Fog,40,2012-11-24 04:12:00
5:15 AM,44.6,44.6,100,30.27,0.3,NNE,1.2,-,N/A,Fog,Fog,30,2012-11-24 04:15:00
5:45 AM,44.6,44.6,100,30.27,0.1,NE,1.2,-,N/A,Fog,Fog,40,2012-11-24 04:45:00
6:00 AM,-9999,-9999,N/A,-9999,0.1,Variable,2.3,-,N/A,Fog,Fog,0,2012-11-24 05:00:00
6:15 AM,44.6,44.6,100,30.27,0.1,East,1.2,-,N/A,Fog,Fog,80,2012-11-24 05:15:00
6:45 AM,44.6,44.6,100,30.27,0.1,Calm,Calm,-,N/A,Fog,Fog,0,2012-11-24 05:45:00
7:00 AM,44,44,98,30.29,0,Calm,Calm,,,Fog,Heavy Fog,,2012-11-24 06:00:00
7:15 AM,44.6,44.6,100,30.27,0.0,ENE,2.3,-,N/A,Fog,Fog,70,2012-11-24 06:15:00
7:45 AM,44.6,44.6,100,30.27,0.0,East,3.5,-,N/A,Fog,Fog,90,2012-11-24 06:45:00
8:15 AM,44.6,44.6,100,30.27,0.0,ESE,2.3,-,N/A,Fog,Fog,110,2012-11-24 07:15:00
8:45 AM,44.6,44.6,100,30.27,0.1,ESE,3.5,-,N/A,Fog,Fog,120,2012-11-24 07:45:00
9:00 AM,-9999,-9999,N/A,-9999,0.1,Variable,2.3,-,N/A,Fog,Fog,0,2012-11-24 08:00:00
9:15 AM,46.4,44.6,93,30.27,0.1,ESE,4.6,-,N/A,Fog,Fog,120,2012-11-24 08:15:00
9:45 AM,44.6,44.6,100,30.27,0.1,ESE,4.6,-,N/A,Fog,Fog,120,2012-11-24 08:45:00
10:14 AM,46.4,46.4,100,30.30,0.5,ESE,3.5,-,N/A,Fog,Fog,120,2012-11-24 09:14:00
10:15 AM,46.4,44.6,93,30.30,0.5,SE,3.5,-,N/A,Fog,Fog,130,2012-11-24 09:15:00
10:41 AM,46.4,44.6,93,30.30,0.9,East,3.5,-,N/A,,Overcast,90,2012-11-24 09:41:00
11:15 AM,46.4,46.4,100,30.27,1.2,ESE,4.6,-,N/A,,Overcast,120,2012-11-24 10:15:00
11:45 AM,46.4,46.4,100,30.27,1.2,East,4.6,-,N/A,,Mostly Cloudy,90,2012-11-24 10:45:00
12:00 PM,-9999,-9999,N/A,-9999,1.9,Variable,3.5,-,N/A,,Mostly Cloudy,0,2012-11-24 11:00:00
12:15 PM,48.2,46.4,93,30.27,1.6,East,2.3,-,N/A,,Mostly Cloudy,90,2012-11-24 11:15:00
12:45 PM,50.0,46.4,87,30.27,2.5,ESE,3.5,-,N/A,,Mostly Cloudy,120,2012-11-24 11:45:00
12:53 PM,50.0,44.6,82,30.27,3.1,ESE,3.5,-,N/A,,Mostly Cloudy,110,2012-11-24 11:53:00
1:00 PM,50,46,80,30.27,2,ESE,2.2,,,,Mist,120,2012-11-24 12:00:00
1:15 PM,50.0,44.6,82,30.27,3.7,ESE,3.5,-,N/A,,Mostly Cloudy,110,2012-11-24 12:15:00
1:45 PM,50.0,44.6,82,30.24,3.7,East,2.3,-,N/A,,Scattered Clouds,100,2012-11-24 12:45:00
2:15 PM,50.0,44.6,82,30.24,3.7,East,1.2,-,N/A,,Scattered Clouds,100,2012-11-24 13:15:00
2:45 PM,50.0,44.6,82,30.24,4.3,SE,2.3,-,N/A,,Mostly Cloudy,140,2012-11-24 13:45:00
3:00 PM,-9999,-9999,N/A,-9999,3.1,Variable,3.5,-,N/A,,Mostly Cloudy,0,2012-11-24 14:00:00
3:15 PM,50.0,44.6,82,30.24,4.3,SE,3.5,-,N/A,,Mostly Cloudy,140,2012-11-24 14:15:00
3:45 PM,46.4,42.8,87,30.24,3.7,SE,4.6,-,N/A,,Mostly Cloudy,140,2012-11-24 14:45:00
4:15 PM,44.6,41.0,87,30.24,3.7,SE,5.8,-,N/A,,Mostly Cloudy,140,2012-11-24 15:15:00
4:45 PM,44.6,42.8,93,30.24,3.7,SE,4.6,-,N/A,,Mostly Cloudy,140,2012-11-24 15:45:00
5:15 PM,44.6,42.8,93,30.24,3.7,East,2.3,-,N/A,,Mostly Cloudy,90,2012-11-24 16:15:00
5:45 PM,41.0,41.0,100,30.24,3.7,ESE,5.8,-,N/A,,Mostly Cloudy,120,2012-11-24 16:45:00
6:15 PM,42.8,42.8,100,30.24,3.7,SSE,1.2,-,N/A,,Mostly Cloudy,150,2012-11-24 17:15:00
6:45 PM,42.8,41.0,93,30.24,3.7,ESE,2.3,-,N/A,,Mostly Cloudy,120,2012-11-24 17:45:00
7:00 PM,43,42,93,30.27,4,ESE,2.2,,,,Partly Cloudy,120,2012-11-24 18:00:00
7:15 PM,42.8,41.0,93,30.24,3.7,ESE,2.3,-,N/A,,Mostly Cloudy,120,2012-11-24 18:15:00
7:45 PM,42.8,41.0,93,30.24,3.7,SE,2.3,-,N/A,,Mostly Cloudy,130,2012-11-24 18:45:00
8:15 PM,42.8,41.0,93,30.24,3.7,SSE,2.3,-,N/A,,Scattered Clouds,150,2012-11-24 19:15:00
8:45 PM,42.8,41.0,93,30.24,3.7,SE,3.5,-,N/A,,Scattered Clouds,130,2012-11-24 19:45:00
9:45 PM,41.0,41.0,100,30.24,3.7,SE,3.5,-,N/A,,Scattered Clouds,140,2012-11-24 20:45:00
10:45 PM,39.2,39.2,100,30.24,3.7,East,3.5,-,N/A,,Scattered Clouds,100,2012-11-24 21:45:00
11:01 PM,41.0,39.2,93,30.27,1.9,East,2.3,-,N/A,,Mostly Cloudy,100,2012-11-24 22:01:00
11:45 PM,41.0,39.2,93,30.21,1.9,ESE,2.3,-,N/A,,Mostly Cloudy,110,2012-11-24 22:45:00